This is the latest recevied weather packets stored in our database for station/object KO6LQJ. If no packets are shown the sender has not sent any weather packets the latest 10 day(s).
| Time | Temp. | Humidity | Pressure | Rain* | Wind** | Luminosity | Snow |
|---|---|---|---|---|---|---|---|
| 1777999347 | 16.11° C | 57% | 1016.2 hPa | 0 mm | - | 107 W/m² | - |
| 1777999045 | 16.11° C | 57% | 1016 hPa | 0 mm | - | 97 W/m² | - |
| 1777998744 | 16.67° C | 56% | 1016.1 hPa | 0 mm | - | 114 W/m² | - |
| 1777998441 | 16.67° C | 56% | 1016.1 hPa | 0 mm | - | 132 W/m² | - |
| 1777998138 | 17.22° C | 54% | 1016.3 hPa | 0 mm | - | 185 W/m² | - |
| 1777997834 | 17.78° C | 54% | 1016 hPa | 0 mm | - | 262 W/m² | - |
| 1777997532 | 16.67° C | 58% | 1016 hPa | 0 mm | - | 651 W/m² | - |
| 1777997229 | 16.11° C | 59% | 1016.1 hPa | 0 mm | - | 165 W/m² | - |
| 1777996927 | 16.11° C | 58% | 1016 hPa | 0 mm | - | 147 W/m² | - |
| 1777996623 | 16.67° C | 57% | 1015.9 hPa | 0 mm | - | 151 W/m² | - |
| 1777996319 | 16.11° C | 59% | 1016 hPa | 0 mm | - | 158 W/m² | - |
| 1777996016 | 16.11° C | 59% | 1015.8 hPa | 0 mm | - | 179 W/m² | - |
| 1777995712 | 16.11° C | 60% | 1015.9 hPa | 0 mm | - | 179 W/m² | - |
| 1777995409 | 16.67° C | 58% | 1015.8 hPa | 0 mm | - | 141 W/m² | - |
| 1777995106 | 16.67° C | 57% | 1015.6 hPa | 0 mm | - | 137 W/m² | - |
| 1777994803 | 16.67° C | 56% | 1015.7 hPa | 0 mm | - | 174 W/m² | - |
| 1777994498 | 17.22° C | 56% | 1015.9 hPa | 0 mm | - | 245 W/m² | - |
| 1777994194 | 16.67° C | 58% | 1015.6 hPa | 0 mm | - | 95 W/m² | - |
| 1777993892 | 17.22° C | 57% | 1015.7 hPa | 0 mm | - | 149 W/m² | - |
| 1777993587 | 16.67° C | 56% | 1015.8 hPa | 0 mm | - | 176 W/m² | - |
| 1777993285 | 16.11° C | 60% | 1015.6 hPa | 0 mm | - | 189 W/m² | - |
| 1777992980 | 16.11° C | 60% | 1015.8 hPa | 0 mm | - | 190 W/m² | - |
| 1777992679 | 15.56° C | 62% | 1015.6 hPa | 0 mm | - | 173 W/m² | - |
| 1777992376 | 15.56° C | 61% | 1015.6 hPa | 0 mm | - | 134 W/m² | - |
| 1777992074 | 15.56° C | 62% | 1015.8 hPa | 0 mm | - | 144 W/m² | - |
* Rain latest hour (hover to see other rain measurements)
** Current wind speed in m/s (hover to see current wind gust speed)